Printer-friendly version

IAU Minor Planet Center

Minor Planet Center

MPEC 2006-A36 : 2006 AR3

The following Minor Planet Electronic Circular may be linked-to from your own Web pages, but must not otherwise be redistributed electronically.


Read MPEC 2006-A35 Read MPEC 2006-A37


M.P.E.C. 2006-A36                                Issued 2006 Jan. 8, 17:09 UT

     The Minor Planet Electronic Circulars contain information on unusual
         minor planets and routine data on comets.  They are published
   on behalf of Commission 20 of the International Astronomical Union by the
          Minor Planet Center, Smithsonian Astrophysical Observatory,
                          Cambridge, MA 02138, U.S.A.

                  Supported in part by the Brinson Foundation
                  Supported in part by the TABASGO Foundation
             Prepared using the Tamkin Foundation Computer Network

                              MPC@CFA.HARVARD.EDU
          URL http://cfa-www.harvard.edu/iau/mpc.html  ISSN 1523-6714

                                   2006 AR3

Observations:
     K06A03R* C2006 01 06.41179 11 41 16.89 +30 21 15.1          18.4   EA036704
     K06A03R  C2006 01 06.42482 11 41 13.02 +30 21 13.5          18.5   EA036704
     K06A03R  C2006 01 06.43784 11 41 09.15 +30 21 12.2          18.8   EA036704
     K06A03R  C2006 01 06.45047 11 41 05.37 +30 21 10.8          19.2   EA036704
     K06A03R  C2006 01 06.46332 11 41 01.59 +30 21 08.5          20.1   EA036704
     K06A03R  C2006 01 07.20071 11 37 35.42 +30 18 55.8                 EA036204
     K06A03R  C2006 01 07.22539 11 37 28.21 +30 18 50.9                 EA036204
     K06A03R  C2006 01 07.22867 11 37 27.26 +30 18 50.2                 EA036204
     K06A03R  C2006 01 07.23185 11 37 26.36 +30 18 49.6                 EA036204
     K06A03R  C2006 01 07.23624 11 37 25.07 +30 18 48.6          18.6 R EA036204
     K06A03R  C2006 01 07.47076 11 36 21.87 +30 18 17.6          18.8   EA036704
     K06A03R  C2006 01 07.47112 11 36 21.22 +30 18 13.7          18.6 R EA036734
     K06A03R  C2006 01 07.47259 11 36 20.69 +30 18 13.0          19.3 R EA036734
     K06A03R  C2006 01 07.47406 11 36 20.40 +30 18 12.5                 EA036734
     K06A03R  C2006 01 07.47654 11 36 20.16 +30 18 14.0          18.5 R EA036682
     K06A03R  C2006 01 07.48359 11 36 18.12 +30 18 15.3          19.2   EA036704
     K06A03R  C2006 01 07.49655 11 36 14.37 +30 18 13.1          20.0   EA036704
     K06A03R  C2006 01 07.49963 11 36 13.47 +30 18 09.8          19.4 R EA036682
     K06A03R  C2006 01 07.50961 11 36 10.52 +30 18 10.4          19.8   EA036704
     K06A03R  C2006 01 07.52257 11 36 06.78 +30 18 07.5          19.6   EA036704
     K06A03R  C2006 01 07.52269 11 36 06.77 +30 18 05.5          18.9 R EA036682
     K06A03R 5C2006 01 08.40938 11 32 08.51 +30 15 19.3          19.0 R EA036673
     K06A03R 5C2006 01 08.41099 11 32 07.96 +30 15 18.6                 EA036673
     K06A03R 5C2006 01 08.41921 11 32 05.47 +30 15 17.4                 EA036673
     K06A03R 5C2006 01 08.42454 11 32 04.07 +30 15 17.0                 EA036673

Observer details:
204 Schiaparelli Observatory.  Observer L. Buzzi.  0.60-m f/4.64 Newtonian
    reflector + CCD.
673 Table Mountain Observatory, Wrightwood.  Observer J. Young.  0.6-m f/16
    Cassegrain + CCD.
682 Kanab.  Observer E. Sheridan.  0.25-m f/4 Schmidt-Cassegrain + CCD.
704 Lincoln Laboratory ETS, New Mexico.  Observers M. Bezpalko, L. Manguso,
    D. Torres, R. Kracke, A. Milner, H. Love.  Measurers J. Stuart, R. Sayer,
    J. Evans, J. Kommers.  1.0-m f/2.15 reflector + CCD.
734 Farpoint Observatory.  Observer D. Tibbets.  Measurer G. Hug.  0.7-m
    reflector + CCD.

Orbital elements:
2006 AR3                                            PHA, Earth MOID = 0.0094 AU
Epoch 2006 Jan. 5.0 TT = JDT 2453740.5                  MPC
M  13.31956              (2000.0)            P               Q
n   0.29337936     Peri.   39.87813     +0.60226947     -0.79808778
a   2.2431054      Node    13.12249     +0.71059181     +0.52563752
e   0.6063988      Incl.    4.57112     +0.36377296     +0.29455237
P   3.36           H   20.3           G   0.15
From 22 observations 2006 Jan. 6-8.

Ephemeris:
2006 AR3                 a,e,i = 2.24, 0.61, 5                   q = 0.8829
Date    TT    R. A. (2000) Decl.     Delta      r     Elong.  Phase     V
2006 01 05    11 47.98   +30 24.8    0.191    1.083   116.7    54.2    18.9
2006 01 15    11 04.46   +29 48.8    0.235    1.161   134.8    37.0    19.0
2006 01 25    10 28.62   +28 50.3    0.289    1.245   151.0    22.6    19.2
2006 02 04    10 00.17   +27 32.6    0.356    1.331   163.8    11.9    19.4
2006 02 14    09 39.83   +26 02.5    0.439    1.419   166.9     9.1    19.9
2006 02 24    09 27.15   +24 29.1    0.539    1.506   159.3    13.5    20.6
2006 03 06    09 20.98   +22 57.4    0.656    1.593   149.6    18.4    21.3
2006 03 16    09 19.99   +21 29.0    0.788    1.678   140.2    22.3    22.0

Gareth V. Williams           (C) Copyright 2006 MPC           M.P.E.C. 2006-A36

Read MPEC 2006-A35 Read MPEC 2006-A37


Our Web policy. Index to the CBAT/MPC/ICQ pages.


Valid HTML 4.01!